Wind_Speed
5 11 9 8 8 7 6 5 4 3 2 2 2 1 2 3 3 3 3 4 2 2 2 2 4 5 5 7 8 6 7 6 7 7 8 8 8 7 7 7 7 5 5
11 8 11 9 10 10 8 7 6 4 2 1 1 1 1 0 3 3 5 4 2 2 3 2 3 5 5 6 5 6 7 8 8 9 7 7 7 7 6 5 4 6 6
15 12 13 10 11 12 10 8 7 5 3 1 1 1 1 0 3 5 5 3 2 2 3 3 3 4 5 5 6 6 7 8 9 10 8 8 8 7 10 12 7 7 4
15 16 15 11 12 13 12 10 8 6 5 4 3 4 2 1 3 5 6 5 3 2 4 3 3 4 4 5 6 8 8 9 7 8 6 10 10 9 8 5 3 3 3
11 10 19 15 12 15 14 13 11 9 8 7 6 6 5 3 5 7 7 7 4 2 3 3 2 2 4 5 6 8 9 8 6 4 7 7 6 4 4 3 2 2 2
11 10 11 19 16 16 17 16 15 13 12 10 9 8 7 5 6 9 10 9 5 1 2 2 1 1 3 5 6 7 7 7 7 8 9 6 6 4 3 2 1 1 2
16 13 11 13 18 19 18 18 17 16 15 13 10 9 9 8 8 10 11 11 8 4 1 1 1 1 2 4 6 6 7 7 6 7 7 7 6 5 4 3 2 2 3
20 16 14 15 17 22 20 19 18 18 17 15 13 12 11 10 10 11 12 12 10 7 4 2 2 1 2 4 6 7 7 7 6 6 7 6 6 5 4 4 4 4 4
20 21 20 18 18 19 22 22 20 20 18 17 16 15 15 14 13 12 13 13 13 10 7 4 4 3 3 4 6 7 7 8 7 8 8 7 7 7 6 6 6 6 6
17 19 25 24 22 21 22 25 23 22 21 20 18 18 17 17 15 15 15 15 15 14 12 8 6 5 4 5 6 7 8 8 9 8 9 9 8 8 8 8 8 8 8
19 20 21 25 27 25 23 25 28 26 25 24 23 22 22 20 19 18 18 18 17 17 15 12 9 7 6 6 7 8 9 9 10 8 10 11 10 10 10 10 10 10 10
20 21 23 24 26 29 29 27 27 27 28 27 26 25 24 22 21 22 22 21 21 20 20 16 13 10 9 8 9 10 10 10 10 9 9 10 10 11 11 11 11 11 11
21 21 23 26 27 28 31 33 32 31 30 29 28 27 27 27 24 24 24 24 23 22 22 20 16 13 12 12 12 12 12 11 10 9 10 10 10 10 11 11 12 12 11
22 23 25 26 29 31 33 33 34 35 31 31 32 32 31 31 29 25 24 24 25 25 23 23 20 18 16 16 16 16 16 14 12 11 11 11 10 10 11 11 12 12 12
24 25 26 28 30 32 36 37 38 37 36 34 33 34 34 34 34 30 29 28 25 24 24 24 24 24 22 20 19 20 19 18 16 15 13 12 12 11 12 12 12 13 13
28 27 29 30 31 33 35 38 40 41 40 40 37 35 35 35 38 37 34 32 31 29 28 26 26 26 25 24 23 23 22 22 20 19 17 15 15 14 13 14 14 13 13
33 32 32 34 35 35 36 39 40 43 45 44 43 40 39 38 36 36 36 35 34 32 32 31 30 30 27 27 26 25 26 25 23 22 21 19 17 16 15 16 15 16 15
36 36 36 36 38 39 39 40 42 44 46 48 48 46 42 42 40 37 37 36 34 34 33 33 32 34 33 32 31 30 28 27 27 26 23 22 20 18 19 18 18 18 18
38 39 39 39 39 40 40 42 43 46 48 48 51 52 50 46 44 42 40 38 37 36 35 32 34 32 33 33 32 30 30 29 29 28 27 25 24 22 22 21 21 21 22
42 43 42 42 42 42 43 44 44 46 49 51 50 53 54 52 46 45 44 43 41 40 37 34 34 35 37 39 35 31 31 32 32 29 29 30 28 25 26 25 23 24 24
43 47 48 47 44 43 44 45 45 45 45 49 52 53 53 56 53 49 47 45 44 41 39 38 36 38 37 35 38 37 33 32 33 29 28 33 29 27 29 29 27 27 28
43 43 47 50 50 50 47 47 46 44 45 46 50 52 53 54 56 53 52 48 46 46 43 40 39 38 38 35 37 39 34 35 34 32 32 29 30 30 30 29 28 28 28
38 42 48 51 53 52 49 48 47 45 43 43 45 48 50 50 53 56 55 52 48 45 46 43 41 41 44 37 33 35 40 40 33 28 29 27 26 27 29 29 28 28 29
31 34 37 39 43 50 49 42 44 43 41 38 38 41 42 44 46 52 57 53 50 47 47 45 43 43 46 37 38 37 33 42 40 33 29 29 31 33 33 32 32 34 35
31 31 30 29 26 28 33 32 36 39 39 36 36 39 39 36 43 45 52 55 51 47 48 45 46 46 44 47 37 37 37 41 39 34 36 33 33 34 33 34 38 41 42
31 29 24 20 15 14 20 25 28 31 33 34 35 37 36 33 34 39 45 51 53 51 49 44 48 43 52 39 40 41 35 34 37 35 36 39 39 37 37 41 44 46 44
Wind_Direction
237 227 221 222 217 209 187 180 168 149 116 113 109 113 161 179 200 189 153 141 107 15 6 83 105 111 122 105 120 129 138 137 134 135 135 140 144 140 129 121 134 136 115
230 229 219 219 215 214 207 188 169 161 152 114 108 87 21 217 198 196 159 153 129 44 28 78 108 125 137 136 138 140 142 145 145 138 141 140 140 135 126 113 130 126 115
241 225 224 226 218 217 211 201 192 189 174 171 265 1 3 351 209 192 167 156 110 39 51 88 106 124 135 149 155 152 152 157 161 139 140 146 143 143 125 118 115 90 96
250 235 227 228 220 217 214 203 205 207 214 213 217 234 298 256 195 199 176 161 126 45 36 61 107 130 145 159 160 160 164 172 168 156 160 148 133 133 144 140 112 81 66
260 257 225 233 228 219 212 207 211 216 225 224 230 242 256 243 198 192 188 178 156 65 45 35 44 134 154 165 166 168 170 166 167 142 148 158 152 148 145 138 122 93 64
261 259 230 232 228 222 214 213 214 218 221 227 233 247 250 238 207 196 196 195 192 147 14 25 32 123 163 166 169 174 175 174 172 143 170 161 158 165 166 164 191 304 330
251 249 242 236 233 226 224 219 221 221 219 223 226 243 254 247 223 204 204 200 216 213 268 319 343 192 185 182 179 182 183 188 191 150 174 170 173 181 188 207 237 274 295
241 239 236 233 233 232 224 223 224 228 229 224 231 234 242 243 236 217 212 210 212 221 233 264 300 273 217 201 197 198 198 198 198 182 205 192 196 204 222 240 257 273 286
243 240 238 235 235 237 235 230 230 232 236 240 240 242 242 236 229 225 220 221 217 225 241 249 269 272 255 228 218 216 215 213 213 202 224 218 218 224 236 250 262 272 281
249 247 242 239 236 238 238 235 234 235 238 243 245 252 250 246 236 227 220 220 223 224 234 242 253 270 268 251 235 231 231 226 228 219 231 234 238 242 250 259 266 273 281
254 252 252 245 240 238 237 243 241 242 244 246 247 254 257 254 248 239 232 223 223 227 231 239 242 248 261 262 254 247 244 240 242 238 239 246 250 253 258 266 274 279 281
257 253 252 252 246 242 241 241 246 249 248 247 252 253 253 253 249 245 242 237 230 226 231 234 239 240 246 257 262 260 258 255 251 253 258 263 265 268 271 274 277 277 277
263 260 254 252 251 247 245 243 242 246 251 253 251 250 254 253 248 245 247 246 244 238 234 237 239 238 239 246 253 258 259 259 258 258 258 266 271 277 281 281 280 282 283
265 261 258 254 250 250 250 248 249 248 247 248 250 252 252 249 248 247 251 253 252 249 241 239 238 237 240 245 245 248 253 255 259 263 259 266 270 276 280 285 287 288 289
265 263 260 256 253 249 249 250 252 252 250 249 250 249 250 247 244 248 253 253 254 253 249 247 243 242 245 245 246 250 254 254 253 258 258 265 273 275 281 284 288 290 290
268 263 260 259 255 252 251 249 248 250 251 252 251 250 252 248 246 249 253 255 254 256 258 254 250 247 247 247 246 243 246 253 256 261 266 266 272 279 287 289 288 289 290
273 270 267 265 262 256 251 250 249 247 246 249 250 254 255 253 248 252 252 251 253 253 253 254 253 249 246 248 248 248 250 252 253 255 263 267 267 274 283 286 289 289 287
280 279 275 272 266 262 258 254 251 249 247 244 247 248 250 253 254 251 254 250 253 252 256 260 259 259 254 248 250 249 246 251 254 255 256 263 263 267 273 278 278 281 280
283 281 278 273 271 270 266 259 253 249 248 246 242 245 246 250 252 253 254 254 254 254 258 258 259 259 267 263 260 250 248 247 250 252 258 257 263 267 261 267 267 279 278
292 289 284 280 274 272 268 263 257 251 248 246 245 242 244 245 248 250 251 252 254 252 252 255 256 257 260 264 268 259 252 248 251 252 254 255 259 262 263 266 268 273 275
290 290 288 284 278 272 269 265 261 257 252 248 245 242 242 243 243 245 248 251 254 252 253 257 256 255 260 258 259 258 257 258 255 250 256 256 259 260 260 261 265 268 272
292 289 285 283 279 274 268 266 262 256 253 251 248 244 242 240 241 241 243 246 248 251 252 251 253 258 255 253 252 260 251 256 255 254 253 252 262 262 260 264 265 268 272
295 293 290 283 275 271 264 259 260 257 253 252 253 251 246 245 242 241 241 242 245 246 248 250 253 255 255 251 260 261 258 256 253 247 248 251 252 253 260 262 266 271 276
297 299 294 292 279 264 257 253 253 255 254 253 254 256 251 246 245 243 242 240 240 244 247 247 251 252 254 250 254 253 265 257 250 247 243 253 260 261 261 259 268 275 278
312 309 310 307 295 273 254 250 251 250 250 249 250 254 258 251 245 243 241 241 238 241 246 249 247 249 249 248 251 245 256 249 259 255 266 267 262 261 263 263 271 276 282
317 311 314 312 309 280 264 260 255 249 250 250 251 253 256 257 251 246 244 239 239 237 241 246 247 245 257 245 247 251 247 247 256 265 264 268 268 264 272 278 280 284 284
Height
3169 3171 3172 3173 3174 3175 3175 3174 3175 3175 3175 3175 3174 3175 3174 3174 3174 3173 3173 3173 3173 3173 3171 3170 3169 3169 3170 3170 3170 3170 3170 3171 3171 3171 3171 3172 3172 3172 3172 3173 3173 3173 3174
3168 3170 3171 3172 3173 3174 3175 3174 3175 3174 3175 3175 3175 3174 3174 3174 3173 3173 3174 3173 3173 3172 3171 3170 3169 3169 3169 3169 3170 3169 3170 3171 3171 3171 3172 3173 3173 3173 3174 3174 3173 3174 3174
3165 3168 3169 3171 3172 3173 3173 3174 3174 3175 3174 3174 3174 3174 3173 3173 3173 3173 3173 3174 3173 3173 3171 3170 3170 3170 3170 3170 3169 3170 3170 3171 3171 3172 3172 3173 3173 3174 3175 3175 3175 3175 3175
3164 3166 3168 3169 3170 3170 3172 3173 3173 3173 3174 3173 3173 3173 3173 3172 3172 3173 3173 3173 3173 3173 3172 3171 3171 3170 3170 3170 3170 3170 3170 3171 3171 3172 3173 3173 3174 3175 3175 3176 3176 3175 3175
3162 3164 3166 3167 3168 3169 3169 3171 3172 3172 3173 3173 3173 3172 3172 3172 3172 3172 3172 3173 3173 3173 3172 3172 3171 3171 3170 3170 3170 3170 3170 3171 3172 3174 3174 3175 3175 3176 3176 3176 3176 3176 3175
3161 3161 3163 3165 3166 3167 3168 3168 3169 3170 3171 3172 3171 3172 3171 3171 3171 3171 3171 3172 3172 3172 3172 3172 3171 3171 3171 3170 3171 3171 3171 3172 3172 3174 3174 3174 3175 3175 3176 3176 3176 3176 3176
3160 3161 3162 3163 3163 3165 3166 3167 3167 3168 3168 3169 3170 3170 3170 3170 3170 3170 3170 3171 3172 3171 3171 3171 3171 3171 3170 3170 3170 3171 3172 3172 3172 3173 3173 3173 3174 3175 3175 3175 3175 3176 3175
3158 3159 3160 3161 3161 3162 3163 3165 3166 3167 3167 3167 3168 3168 3168 3169 3169 3169 3170 3170 3170 3170 3171 3170 3170 3170 3170 3170 3170 3170 3171 3172 3172 3173 3173 3173 3174 3174 3175 3175 3175 3175 3175
3155 3156 3157 3159 3160 3160 3161 3162 3163 3165 3165 3166 3166 3167 3166 3166 3166 3167 3168 3168 3169 3169 3170 3170 3170 3170 3169 3169 3169 3170 3170 3171 3171 3172 3172 3172 3173 3173 3173 3174 3174 3174 3174
3152 3152 3153 3155 3155 3157 3159 3159 3160 3161 3162 3163 3165 3165 3165 3165 3165 3164 3165 3166 3167 3167 3168 3169 3169 3169 3169 3169 3168 3169 3169 3170 3170 3171 3171 3171 3171 3172 3172 3172 3172 3172 3172
3149 3149 3150 3150 3151 3152 3154 3156 3156 3157 3159 3160 3161 3162 3163 3163 3164 3163 3163 3163 3164 3165 3165 3166 3167 3167 3168 3168 3167 3168 3168 3168 3169 3170 3170 3170 3170 3170 3170 3170 3170 3170 3170
3144 3145 3146 3146 3146 3148 3149 3150 3152 3154 3155 3156 3157 3158 3159 3160 3161 3161 3161 3161 3161 3161 3161 3163 3164 3165 3166 3166 3166 3166 3166 3166 3167 3168 3168 3168 3168 3168 3168 3168 3168 3168 3167
3140 3140 3141 3142 3142 3142 3143 3144 3146 3147 3150 3151 3152 3154 3155 3156 3156 3157 3157 3158 3158 3158 3159 3160 3161 3162 3163 3163 3164 3164 3164 3164 3165 3166 3166 3166 3166 3166 3166 3166 3165 3165 3165
3134 3135 3135 3136 3137 3137 3137 3138 3139 3141 3143 3145 3147 3147 3149 3150 3151 3152 3153 3154 3154 3155 3156 3157 3157 3158 3159 3160 3160 3160 3161 3162 3162 3163 3163 3163 3163 3163 3163 3163 3163 3163 3163
3127 3128 3128 3128 3130 3130 3131 3132 3133 3134 3136 3138 3139 3141 3142 3144 3145 3146 3149 3150 3150 3150 3151 3153 3153 3154 3154 3155 3157 3157 3158 3158 3159 3159 3161 3161 3161 3161 3161 3161 3160 3160 3160
3119 3121 3120 3120 3121 3122 3123 3124 3125 3126 3128 3129 3131 3134 3135 3137 3138 3139 3141 3143 3145 3146 3147 3148 3148 3149 3150 3150 3151 3153 3154 3154 3155 3156 3157 3158 3158 3158 3158 3158 3158 3158 3158
3112 3113 3114 3114 3113 3113 3114 3115 3116 3118 3119 3121 3123 3125 3128 3129 3131 3132 3134 3135 3137 3139 3140 3142 3143 3143 3144 3145 3146 3147 3148 3149 3150 3151 3152 3154 3154 3155 3154 3155 3155 3155 3155
3104 3103 3105 3105 3104 3104 3105 3106 3107 3108 3109 3112 3113 3116 3118 3121 3124 3125 3126 3128 3131 3131 3133 3134 3137 3137 3139 3139 3140 3141 3142 3143 3144 3145 3146 3148 3149 3150 3150 3150 3150 3150 3150
3093 3093 3093 3094 3093 3093 3094 3095 3096 3097 3098 3101 3105 3106 3109 3112 3115 3117 3118 3120 3123 3123 3125 3128 3128 3129 3131 3133 3135 3135 3136 3136 3137 3139 3141 3140 3143 3144 3144 3145 3145 3145 3145
3084 3083 3082 3082 3082 3081 3081 3081 3082 3084 3085 3089 3093 3096 3100 3102 3105 3108 3111 3112 3114 3116 3118 3120 3121 3121 3122 3125 3126 3127 3128 3129 3130 3133 3133 3134 3135 3137 3138 3139 3139 3140 3139
3074 3070 3068 3067 3069 3069 3067 3068 3069 3071 3074 3075 3078 3083 3087 3090 3095 3098 3101 3104 3105 3107 3111 3113 3114 3114 3116 3118 3118 3118 3119 3120 3123 3125 3126 3127 3128 3129 3129 3132 3132 3133 3133
3063 3061 3056 3053 3051 3053 3055 3055 3055 3058 3061 3063 3065 3069 3074 3077 3081 3086 3090 3094 3097 3099 3101 3104 3107 3108 3108 3110 3110 3111 3110 3113 3114 3118 3119 3120 3122 3122 3123 3124 3125 3125 3126
3053 3048 3044 3040 3036 3035 3038 3040 3042 3044 3049 3051 3054 3057 3062 3066 3071 3074 3078 3083 3087 3089 3092 3095 3097 3098 3100 3101 3101 3104 3103 3103 3107 3110 3111 3112 3113 3114 3115 3116 3117 3117 3117
3045 3040 3033 3025 3019 3018 3021 3028 3030 3033 3037 3042 3044 3046 3050 3054 3057 3061 3065 3071 3075 3080 3081 3085 3088 3090 3091 3092 3094 3095 3095 3097 3096 3100 3102 3104 3105 3106 3108 3108 3109 3109 3108
3034 3029 3024 3015 3009 3008 3012 3018 3022 3024 3028 3031 3034 3036 3039 3044 3045 3048 3052 3058 3064 3069 3072 3074 3077 3078 3082 3085 3086 3088 3088 3089 3089 3088 3091 3095 3096 3098 3099 3099 3099 3099 3099
3026 3020 3015 3009 3006 3006 3009 3012 3015 3018 3021 3023 3026 3026 3029 3034 3037 3038 3041 3045 3052 3058 3062 3065 3067 3067 3069 3071 3076 3079 3078 3080 3081 3081 3081 3082 3084 3087 3087 3087 3086 3086 3086